User: anonymous   Login
Location: Oshawa
(43.9000°N, 78.8670°W)
Time: 10:18:38
(UTC-04:00)
Language:

Iridium 98 - Orbit

View from above orbital plane
View from above orbital plane
View from above satellite
View from above satellite

Ground track
Ground track

The orbit data is extracted from the following two-line orbital elements,

1 27451U 02031B   16243.28659209  .00000209  00000-0  67655-4 0  9996
2 27451  86.3996 143.8492 0002312  82.3335  32.5677 14.34218548749601
Epoch (UTC): 30 August 2016 06:52:41
Eccentricity: 0.0002312
inclination: 86.3996°
perigee height: 776 km
apogee height: 779 km
right ascension of ascending node: 143.8492°
argument of perigee: 82.3335°
revolutions per day: 14.34218548
mean anomaly at epoch: 32.5677°
orbit number at epoch: 74960

The dashed part of the orbit path shows where the satellite is in the earth's shadow,  

DLR